Valmeinier, France 16 day weather forecast

Slopes altitude range -1 m - -1m

Number of lifts: -1 Pistes: -1km

In some cases the lift and piste totals shown are for the ski domain (e.g. Three Valleys) rather than individual resort (e.g. Courchevel)

Overview

The 16 day weather forecast is fully updated 4 times every day.

    • Fri 15 DEC 2017
    • Fri 15
    • -7C -6C
    • Sat 16 DEC 2017
    • Sat 16
    • -12C -9C
    • Sun 17 DEC 2017
    • Sun 17
    • -17C -10C
    • Mon 18 DEC 2017
    • Mon 18
    • -14C -5C
    • Tue 19 DEC 2017
    • Tue 19
    • -15C -4C
    • Wed 20 DEC 2017
    • Wed 20
    • -10C 1C
    • Thu 21 DEC 2017
    • Thu 21
    • -5C 3C
    • Fri 22 DEC 2017
    • Fri 22
    • -4C 0C
    • Sat 23 DEC 2017
    • Sat 23
    • -11C -6C
    • Sun 24 DEC 2017
    • Sun 24
    • -12C -7C
    • Mon 25 DEC 2017
    • Mon 25
    • -6C -1C
    • Tue 26 DEC 2017
    • Tue 26
    • -10C -3C
    • Wed 27 DEC 2017
    • Wed 27
    • -7C -5C
    • Thu 28 DEC 2017
    • Thu 28
    • -9C -5C
    • Fri 29 DEC 2017
    • Fri 29
    • -13C -3C
    • Sat 30 DEC 2017
    • Sat 30
    • -5C -2C

Date:

Time Type 0°C level Temp Chill Snow Cloud Speed Gust Dir Press
3:00 1529m -5°C -5_10 4cm 100% 10mph 20mph 1003mB
6:00 1301m -6°C -6_9 4cm 100% 9mph 12mph 1003mB
9:00 1185m -7°C -7_7 2cm 100% 7mph 8mph 1004mB
12:00 1201m -6°C -6_11 1cm 99% 11mph 13mph 1002mB
15:00 960m -7°C -7_6 1cm 79% 6mph 8mph 1002mB
18:00 514m -7°C -7_4 1cm 87% 4mph 4mph 1004mB
21:00 431m -12°C -12_3 1cm 96% 3mph 3mph 1005mB
0:00 396m -12°C -12_2 1cm 98% 2mph 2mph 1005mB
3:00 459m -12°C -12_5 3cm 99% 5mph 5mph 1006mB
6:00 542m -12°C -12_9 2cm 99% 9mph 13mph 1008mB
9:00 601m -12°C -12_12 1cm 80% 12mph 17mph 1011mB
12:00 835m -9°C -9_13 1cm 73% 13mph 16mph 1012mB
15:00 611m -9°C -9_11 1cm 58% 11mph 15mph 1014mB
18:00 228m -9°C -9_11 1cm 62% 11mph 13mph 1018mB
21:00 0m -16°C -16_9 1cm 68% 9mph 11mph 1020mB
0:00 0m -18°C -18_10 1cm 62% 10mph 11mph 1022mB
3:00 0m -16°C -16_10 1cm 56% 10mph 11mph 1023mB
6:00 0m -16°C -16_10 1cm 60% 10mph 11mph 1025mB
9:00 80m -17°C -17_8 1cm 64% 8mph 10mph 1027mB
12:00 684m -10°C -10_8 0cm 60% 8mph 10mph 1027mB
15:00 407m -10°C -10_8 0cm 52% 8mph 10mph 1028mB
18:00 0m -10°C -10_8 0cm 50% 8mph 9mph 1031mB
21:00 0m -18°C -18_7 0cm 0% 7mph 8mph 1033mB
0:00 0m -18°C -18_6 0cm 0% 6mph 7mph 1033mB
3:00 7m -16°C -16_8 0cm 57% 8mph 10mph 1033mB
6:00 126m -16°C -16_11 0cm 65% 11mph 13mph 1033mB
9:00 795m -14°C -14_11 0cm 78% 11mph 16mph 1031mB
12:00 1548m -5°C -5_14 0cm 71% 14mph 19mph 1028mB
15:00 1371m -4°C -4_10 1cm 84% 10mph 13mph 1026mB
18:00 1029m -4°C -4_13 1cm 83% 13mph 19mph 1026mB
21:00 578m -11°C -11_9 1cm 63% 9mph 10mph 1028mB
0:00 24m -15°C -15_4 1cm 60% 4mph 5mph 1030mB
3:00 20m -15°C -15_3 0cm 38% 3mph 3mph 1031mB
6:00 38m -15°C -15_2 0cm 19% 2mph 3mph 1032mB
9:00 870m -15°C -15_1 0cm 1% 1mph 2mph 1034mB
12:00 1704m -4°C -4_3 0cm 0% 3mph 4mph 1032mB
15:00 1106m -3°C -3_4 0cm 1% 4mph 5mph 1034mB
18:00 243m -3°C -3_5 0cm 1% 5mph 7mph 1037mB
21:00 199m -14°C -14_4 0cm 0% 4mph 5mph 1039mB
0:00 243m -14°C -14_0 0cm 0% 0mph 2mph 1039mB
3:00 563m -13°C -13_3 0cm 38% 3mph 4mph 1038mB
6:00 715m -13°C -13_3 0cm 44% 3mph 4mph 1037mB
9:00 1650m -10°C -10_3 0cm 0% 3mph 3mph 1037mB
12:00 2920m 1°C 1_2 0cm 0% 2mph 3mph 1035mB
15:00 2140m 1°C 1_3 0cm 0% 3mph 3mph 1034mB
18:00 1308m 1°C 1_3 0cm 0% 3mph 3mph 1036mB
21:00 1438m -6°C -6_3 0cm 67% 3mph 4mph 1038mB
0:00 1399m -6°C -6_3 0cm 34% 3mph 3mph 1038mB
3:00 1353m -6°C -6_1 0cm 0% 1mph 2mph 1038mB
6:00 1421m -6°C -6_2 0cm 0% 2mph 2mph 1038mB
9:00 2575m -5°C -5_1 0cm 18% 1mph 2mph 1038mB
12:00 3223m 3°C 3_1 0cm 40% 1mph 1mph 1036mB
15:00 2715m 3°C 3_1 0cm 30% 1mph 2mph 1035mB
18:00 1528m 3°C 3_0 0cm 15% 0mph 1mph 1035mB
21:00 1509m -5°C -5_0 0cm 0% 0mph 1mph 1035mB
0:00 1531m -5°C -5_1 0cm 3% 1mph 1mph 1033mB
3:00 1624m -5°C -5_4 0cm 19% 4mph 4mph 1031mB
6:00 1626m -5°C -5_7 0cm 35% 7mph 8mph 1030mB
9:00 1910m -4°C -4_11 0cm 69% 11mph 15mph 1029mB
12:00 2259m 0°C 0_12 0cm 70% 12mph 16mph 1025mB
15:00 2287m 4°C 4_10 0cm 53% 10mph 16mph 1022mB
18:00 1583m 4°C 4_11 0cm 50% 11mph 18mph 1021mB
21:00 1325m -4°C -4_12 0cm 4% 12mph 19mph 1022mB
0:00 970m -6°C -6_12 0cm 4% 12mph 21mph 1021mB
3:00 494m -9°C -9_12 0cm 3% 12mph 19mph 1021mB
6:00 326m -10°C -10_10 0cm 6% 10mph 16mph 1021mB
9:00 588m -11°C -11_9 0cm 36% 9mph 15mph 1021mB
12:00 886m -6°C -6_10 0cm 24% 10mph 14mph 1020mB
15:00 688m -7°C -7_9 0cm 30% 9mph 22mph 1019mB
18:00 611m -7°C -7_9 0cm 61% 9mph 28mph 1020mB
21:00 525m -9°C -9_9 1cm 96% 9mph 26mph 1019mB
0:00 473m -9°C -9_8 1cm 98% 8mph 25mph 1019mB
3:00 313m -10°C -10_9 0cm 89% 9mph 14mph 1019mB
6:00 90m -12°C -12_10 0cm 53% 10mph 16mph 1020mB
9:00 269m -12°C -12_11 0cm 4% 11mph 17mph 1021mB
12:00 836m -7°C -7_10 0cm 3% 10mph 16mph 1019mB
15:00 718m -6°C -6_10 0cm 1% 10mph 16mph 1018mB
18:00 507m -6°C -6_10 0cm 1% 10mph 16mph 1018mB
21:00 798m -9°C -9_10 0cm 18% 10mph 15mph 1017mB
0:00 1020m -9°C -9_9 0cm 47% 9mph 15mph 1015mB
Afternoon 0.03125mm 0 1492m -1°C -1_6 1cm 95% 6mph 9mph 1010mB
Morning 0.0104167mm 0 439m -10°C -10_10 0cm 40% 10mph 14mph 1013mB
Afternoon 0mm 0 1318m -3°C -3_3 0cm 50% 3mph 6mph 1009mB
Morning 0.260417mm 0 973m -6°C -6_7 2cm 98% 7mph 10mph 1004mB
Afternoon 0.265625mm 0.1875 833m -5°C -5_7 2cm 96% 7mph 11mph 996mB
Morning 0.0677083mm 0.0625 389m -11°C -11_9 1cm 92% 9mph 16mph 984mB
Afternoon 0.739583mm 0 1048m -5°C -5_2 6cm 100% 2mph 4mph 978mB
Morning 0.119792mm 0 20m -14°C -14_11 1cm 66% 11mph 15mph 993mB
Afternoon 0.00520833mm 0 1220m -3°C -3_8 0cm 17% 8mph 12mph 994mB
Morning 0.536458mm 0 1220m -5°C -5_9 4cm 99% 9mph 13mph 993mB
Afternoon 1.07812mm 2.5625 1079m -2°C -2_15 20cm 99% 15mph 36mph 995mB
Morning 0.65625mm 0.3125 1202m -5°C -5_14 5cm 97% 14mph 34mph 999mB

16 day outlook at a glance

Forecast issued: 15/12/2017 06:30:18

Chat

Your comments and questions. In a resort? Let us know what it's like!


Characters left 250

For terms and conditions see Readers Comments on the Cookie and privacy policy page.